Tracking 26940 objects as of 28-Jan-2023
HD Live streaming from Space Station
objects crossing your sky now

FORMOSAT 3B

Track FORMOSAT 3B now!
10-day predictions
FORMOSAT 3B is classified as:


NORAD ID: 29048
Int'l Code: 2006-011B
Perigee: 770.4 km
Apogee: 833.1 km
Inclination: 72.0 °
Period: 100.8 minutes
Semi major axis: 7172 km
RCS: 0.6095 m2 (medium)
Launch date: April 15, 2006
Source: Taiwan (Republic of China) (ROC)
Launch site: AIR FORCE WESTERN TEST RANGE (AFWTR)
Your satellite tracking list
Your tracking list is empty




NASA's NSSDC Master Catalog

Two Line Element Set (TLE):
1 29048U 06011B   23027.87282823  .00000542  00000-0  22771-3 0  9998
2 29048  71.9643 231.3037 0043712 177.9135 182.2192 14.29125635880092
Source of the keplerian elements: AFSPC